Location: York
(31.8935°S, 116.7682°E)
Time: 18:34:25
(UTC+08:00)

deb Explorer IX - Pass Details

Date: 27 September 2022
Orbit: 533 x 1057 km, 38.8° (Epoch: 30 November)

Event Time Altitude Azimuth Distance (km) Brightness Sun altitude
Rises 20:20:19 0° 296° (WNW) 3,350 ? -27.4°
Reaches altitude 10° 20:23:00 10° 296° (WNW) 2,330 ? -27.9°
Enters shadow 20:27:12 53° 297° (WNW) 878 ? -28.7°
Maximum altitude 20:28:26 89° 22° (NNE) 700 - -29.0°
Drops below altitude 10° 20:33:06 10° 114° (ESE) 2,010 - -29.9°
Sets 20:35:17 0° 114° (ESE) 2,856 - -30.3°
